DW7447 Weather Reports


time (UTC)temp
F
wind
direction
speed
knots
gust
knots
rain 1hr
in
rain 24hr
in
rain mn
in
humidity
%
barometer
mb
20260507010430 37 180 0.9 3.5 0.00 0.00 0.00 88 1015.8
20260507005931 37 178 0.0 3.5 0.00 0.00 0.00 88 1015.9
20260507005431 38 178 1.7 4.3 0.00 0.00 0.00 88 1015.9
20260507004932 38 186 0.9 4.3 0.00 0.00 0.00 88 1015.8
20260507003429 38 178 0.0 4.3 0.00 0.00 0.00 88 1015.8
20260507002930 38 178 0.0 7.0 0.00 0.00 0.00 88 1015.9
20260507002431 38 189 1.7 7.0 0.00 0.00 0.00 88 1015.8
20260507001430 38 172 3.5 7.0 0.00 0.00 0.00 88 1015.7
20260507000931 38 147 2.6 7.8 0.00 0.00 0.00 87 1015.8
20260507000431 38 151 3.5 7.8 0.00 0.00 0.00 87 1015.9
20260506235931 38 192 0.9 4.3 0.00 0.00 0.00 87 1015.9
20260506235429 38 196 1.7 5.2 0.00 0.00 0.00 87 1015.9
20260506234930 38 186 1.7 5.2 0.00 0.00 0.00 87 1015.9
20260506234430 38 190 2.6 5.2 0.00 0.00 0.00 86 1015.9
20260506233929 38 173 1.7 7.8 0.00 0.00 0.00 86 1015.9
20260506233431 38 179 2.6 7.8 0.00 0.00 0.00 86 1016.2
20260506232931 38 180 2.6 7.0 0.00 0.00 0.00 86 1016.1
20260506232430 38 179 3.5 7.0 0.00 0.00 0.00 86 1016.2
20260506231432 38 200 2.6 7.8 0.00 0.00 0.00 86 1016.1
20260506230931 38 206 2.6 7.8 0.00 0.00 0.00 86 1016.1
20260506230430 38 176 3.5 6.1 0.00 0.00 0.00 86 1016.1
20260506225929 38 149 3.5 6.1 0.00 0.00 0.00 85 1016.0
20260506224929 38 165 3.5 7.0 0.00 0.00 0.00 85 1016.1
20260506223930 38 140 2.6 6.1 0.00 0.00 0.00 85 1016.1
20260506223431 38 165 3.5 6.1 0.00 0.00 0.00 84 1016.0
20260506222429 39 151 1.7 6.1 0.00 0.00 0.00 84 1016.1
20260506221929 39 173 2.6 6.1 0.00 0.00 0.00 83 1016.2
20260506221429 39 168 1.7 5.2 0.00 0.00 0.00 83 1016.1
20260506220931 39 147 2.6 5.2 0.00 0.00 0.00 83 1016.2
20260506220431 39 147 0.9 5.2 0.00 0.00 0.00 82 1016.1
20260506215930 39 130 2.6 5.2 0.00 0.00 0.00 82 1016.1
20260506215430 39 137 2.6 5.2 0.00 0.00 0.00 82 1016.2
20260506214931 39 120 1.7 6.1 0.00 0.00 0.00 82 1016.1
20260506213930 39 100 2.6 7.0 0.00 0.00 0.00 82 1016.1
20260506213430 40 118 3.5 7.0 0.00 0.00 0.00 82 1016.2
20260506212930 40 134 3.5 7.0 0.00 0.00 0.00 81 1016.2
20260506212431 40 117 3.5 7.0 0.00 0.00 0.00 80 1016.2
20260506211932 40 121 0.9 5.2 0.00 0.00 0.00 80 1016.1
20260506211431 40 106 1.7 5.2 0.00 0.00 0.00 80 1016.1
20260506210929 40 114 1.7 6.1 0.00 0.00 0.00 80 1016.1
20260506210430 40 131 1.7 6.1 0.00 0.00 0.00 79 1016.1
20260506205930 41 147 2.6 6.1 0.00 0.00 0.00 79 1016.2
20260506205429 41 138 3.5 6.1 0.00 0.00 0.00 79 1016.0
20260506204430 41 166 2.6 6.1 0.00 0.00 0.00 78 1016.0
20260506203431 42 159 0.9 4.3 0.00 0.00 0.00 78 1016.1
20260506201929 43 165 0.9 3.5 0.00 0.00 0.00 77 1016.1
20260506201430 43 166 1.7 4.3 0.00 0.00 0.00 77 1016.0
20260506200930 43 168 1.7 4.3 0.00 0.00 0.00 76 1016.1
20260506200430 44 96 1.7 5.2 0.00 0.00 0.00 76 1016.0
20260506194932 44 89 1.7 4.3 0.00 0.00 0.00 75 1015.9
20260506193930 45 89 0.9 4.3 0.00 0.00 0.00 74 1015.9
20260506193430 45 82 1.7 6.1 0.00 0.00 0.00 73 1015.9
20260506192930 45 80 1.7 6.1 0.00 0.00 0.00 73 1016.0
20260506191930 46 75 2.6 6.1 0.00 0.00 0.00 72 1015.9
20260506191429 46 55 3.5 6.1 0.00 0.00 0.00 72 1015.8
20260506190929 46 73 1.7 7.8 0.00 0.00 0.00 70 1015.8
20260506190429 46 58 1.7 7.8 0.00 0.00 0.00 70 1015.7
20260506185930 46 69 3.5 7.0 0.00 0.00 0.00 70 1015.8
20260506185430 46 51 3.5 7.0 0.00 0.00 0.00 70 1015.8
20260506184930 47 92 3.5 6.1 0.00 0.00 0.00 69 1015.8
20260506184430 47 52 1.7 7.8 0.00 0.00 0.00 70 1015.7
20260506183930 47 38 3.5 7.8 0.00 0.00 0.00 70 1015.7
20260506183431 47 16 3.5 7.8 0.00 0.00 0.00 68 1015.7
20260506182929 47 73 4.3 10.4 0.00 0.00 0.00 68 1015.7
20260506182429 47 58 5.2 10.4 0.00 0.00 0.00 68 1015.7
20260506181929 48 69 1.7 9.6 0.00 0.00 0.00 68 1015.6
20260506181431 48 86 4.3 9.6 0.00 0.00 0.00 67 1015.6
20260506180931 48 45 4.3 9.6 0.00 0.00 0.00 68 1015.6
20260506180430 48 48 3.5 9.6 0.00 0.00 0.00 67 1015.4
20260506175907 48 66 3.5 7.8 0.00 0.00 0.00 68 1015.5
20260506174904 48 61 1.7 7.8 0.00 0.00 0.00 67 1015.5
20260506174403 48 86 3.5 10.4 0.00 0.00 0.00 67 1015.4
20260506172848 48 58 4.3 9.6 0.00 0.00 0.00 69 1015.5
20260506172331 48 71 4.3 9.6 0.00 0.00 0.00 68 1015.6
20260506171832 48 358 4.3 9.6 0.00 0.00 0.00 67 1015.6
20260506171329 48 79 3.5 9.6 0.00 0.00 0.00 67 1015.7
20260506170829 49 39 5.2 11.3 0.00 0.00 0.00 68 1015.8
20260506170346 49 23 5.2 11.3 0.00 0.00 0.00 68 1015.8
20260506165830 49 30 5.2 11.3 0.00 0.00 0.00 67 1015.8
20260506165331 49 37 4.3 12.2 0.00 0.00 0.00 67 1015.8
20260506164830 49 82 5.2 12.2 0.00 0.00 0.00 67 1015.8
20260506164329 49 44 5.2 9.6 0.00 0.00 0.00 66 1015.7
20260506163328 49 0 4.3 12.2 0.00 0.00 0.00 65 1015.8
20260506162830 49 24 6.1 12.2 0.00 0.00 0.00 66 1015.8
20260506161830 49 8 5.2 10.4 0.00 0.00 0.00 64 1015.8
20260506161330 50 38 5.2 13.0 0.00 0.00 0.00 64 1015.9
20260506160828 50 27 7.8 13.0 0.00 0.00 0.00 66 1015.8
20260506154329 50 39 5.2 12.2 0.00 0.00 0.00 62 1015.9
20260506153828 50 1 4.3 13.9 0.00 0.00 0.00 61 1015.9
20260506153329 50 65 4.3 13.9 0.00 0.00 0.00 61 1015.9
20260506152829 51 49 6.1 13.9 0.00 0.00 0.00 61 1015.9
20260506152330 51 20 6.1 13.9 0.00 0.00 0.00 61 1015.8
20260506151830 51 18 7.0 12.2 0.00 0.00 0.00 60 1015.9
20260506151331 49 38 6.1 12.2 0.00 0.00 0.00 61 1016.0
20260506150830 49 0 4.3 9.6 0.00 0.00 0.00 61 1015.9
20260506150330 49 358 6.1 9.6 0.00 0.00 0.00 61 1015.9
20260506145830 49 68 3.5 11.3 0.00 0.00 0.00 62 1015.8
20260506145330 49 10 5.2 11.3 0.00 0.00 0.00 62 1015.8
20260506144329 49 32 7.0 11.3 0.00 0.00 0.00 62 1015.8
20260506143329 50 21 7.0 12.2 0.00 0.00 0.00 62 1016.0
20260506142831 51 55 4.3 12.2 0.00 0.00 0.00 62 1015.9
20260506142330 51 17 4.3 13.0 0.00 0.00 0.00 62 1015.9
20260506141829 51 75 5.2 13.0 0.00 0.00 0.00 62 1015.9
20260506141330 51 21 7.0 12.2 0.00 0.00 0.00 61 1015.9
20260506140828 52 82 4.3 11.3 0.00 0.00 0.00 62 1015.9
20260506140329 51 44 5.2 11.3 0.00 0.00 0.00 63 1015.9
20260506135828 51 47 4.3 10.4 0.00 0.00 0.00 63 1016.0
20260506135330 50 14 4.3 12.2 0.00 0.00 0.00 63 1015.9
20260506134828 50 0 6.1 12.2 0.00 0.00 0.00 62 1016.0
20260506134329 51 10 6.1 12.2 0.00 0.00 0.00 62 1015.9
20260506133830 50 4 5.2 10.4 0.00 0.00 0.00 63 1016.0
20260506132829 50 31 5.2 11.3 0.00 0.00 0.00 62 1016.0
20260506132330 50 61 7.0 11.3 0.00 0.00 0.00 62 1016.0
20260506131829 50 314 5.2 12.2 0.00 0.00 0.00 65 1016.1
20260506131328 50 7 5.2 12.2 0.00 0.00 0.00 64 1016.1
20260506130830 49 23 2.6 10.4 0.00 0.00 0.00 64 1016.0
20260506125831 49 63 5.2 10.4 0.00 0.00 0.00 62 1015.9
20260506125331 49 48 4.3 10.4 0.00 0.00 0.00 63 1016.0
20260506124829 49 25 3.5 11.3 0.00 0.00 0.00 61 1016.0
20260506124328 49 3 7.0 11.3 0.00 0.00 0.00 60 1016.0
20260506123828 49 39 7.0 11.3 0.00 0.00 0.00 60 1016.0
20260506123329 49 25 6.1 10.4 0.00 0.00 0.00 60 1016.0
20260506122829 50 10 5.2 10.4 0.00 0.00 0.00 58 1016.0
20260506122331 50 7 5.2 12.2 0.00 0.00 0.00 61 1016.0
20260506121829 50 54 7.0 12.2 0.00 0.00 0.00 62 1016.0
20260506121329 50 16 5.2 10.4 0.00 0.00 0.00 62 1016.0
20260506120829 50 4 5.2 11.3 0.00 0.00 0.00 62 1016.0
20260506120329 50 0 6.1 12.2 0.00 0.00 0.00 62 1016.1
20260506115828 51 21 5.2 12.2 0.00 0.00 0.00 60 1016.1
20260506114829 51 32 4.3 12.2 0.00 0.00 0.00 62 1016.0
20260506114330 52 0 7.8 13.0 0.00 0.00 0.00 62 1016.0
20260506113830 51 16 7.0 14.8 0.00 0.00 0.00 62 1016.1
20260506113330 51 44 6.1 14.8 0.00 0.00 0.00 64 1016.1
20260506112829 49 6 5.2 11.3 0.00 0.00 0.00 61 1016.1
20260506112329 49 18 3.5 11.3 0.00 0.00 0.00 62 1016.2
20260506111829 49 0 6.1 10.4 0.00 0.00 0.00 62 1016.3
20260506111331 50 55 2.6 11.3 0.00 0.00 0.00 62 1016.3
20260506110829 50 18 6.1 11.3 0.00 0.00 0.00 62 1016.3
20260506110330 50 4 5.2 11.3 0.00 0.00 0.00 62 1016.3
20260506105828 49 18 4.3 12.2 0.00 0.00 0.00 63 1016.2
20260506105328 49 350 7.0 13.0 0.00 0.00 0.00 63 1016.2
20260506104829 50 18 6.1 13.0 0.00 0.00 0.00 61 1016.3
20260506103330 49 41 6.1 12.2 0.00 0.00 0.00 67 1016.3
20260506102830 47 96 6.1 11.3 0.00 0.00 0.00 67 1016.3
20260506101830 47 14 6.1 11.3 0.00 0.00 0.00 67 1016.3
20260506095828 47 16 6.1 13.9 0.00 0.00 0.00 67 1016.3
20260506094330 47 354 5.2 14.8 0.00 0.00 0.00 69 1016.3
20260506093828 47 34 7.0 14.8 0.00 0.00 0.00 69 1016.4
20260506092828 49 6 7.8 14.8 0.00 0.00 0.00 66 1016.3
20260506092328 49 0 7.8 14.8 0.00 0.00 0.00 66 1016.3
20260506091830 49 7 7.8 13.9 0.00 0.00 0.00 67 1016.3
20260506091328 49 0 6.1 13.9 0.00 0.00 0.00 64 1016.3
20260506090829 49 20 8.7 13.9 0.00 0.00 0.00 64 1016.4
20260506090330 48 347 7.0 13.0 0.00 0.00 0.00 63 1016.4
20260506085828 49 333 5.2 10.4 0.00 0.00 0.00 63 1016.3
20260506085328 49 61 4.3 11.3 0.00 0.00 0.00 65 1016.3
20260506084828 48 10 7.0 13.0 0.00 0.00 0.00 65 1016.3
20260506084329 48 16 6.1 13.0 0.00 0.00 0.00 65 1016.3
20260506083828 47 0 7.0 12.2 0.00 0.00 0.00 67 1016.4
20260506083329 46 28 5.2 13.0 0.00 0.00 0.00 68 1016.4
20260506082829 46 10 7.0 13.0 0.00 0.00 0.00 67 1016.3
20260506082328 46 66 6.1 11.3 0.00 0.00 0.00 67 1016.2
20260506081828 46 27 4.3 13.9 0.00 0.00 0.00 68 1016.3
20260506081330 45 63 6.1 13.9 0.00 0.00 0.00 70 1016.4
20260506080829 45 3 7.8 12.2 0.00 0.00 0.00 69 1016.3
20260506080329 45 7 4.3 13.0 0.00 0.00 0.00 69 1016.2
20260506073327 45 34 7.0 12.2 0.00 0.00 0.00 74 1016.1
20260506072808 45 351 5.2 12.2 0.00 0.00 0.00 73 1016.1
20260506072301 45 0 5.2 12.2 0.00 0.00 0.00 72 1016.0
20260506071801 45 1 5.2 11.3 0.00 0.00 0.00 74 1016.0
20260506071301 44 17 7.0 12.2 0.00 0.00 0.00 76 1015.9
20260506070803 44 1 7.0 12.2 0.00 0.00 0.00 80 1015.9
20260506070304 43 72 7.8 12.2 0.00 0.00 0.00 80 1016.0
20260506062305 40 188 1.7 4.3 0.00 0.00 0.00 90 1015.7
20260506061801 40 254 1.7 4.3 0.00 0.00 0.00 90 1015.8
20260506061303 40 254 1.7 4.3 0.00 0.00 0.00 90 1015.6
20260506060804 40 264 1.7 6.1 0.00 0.00 0.00 90 1015.7
20260506060303 40 254 2.6 10.4 0.00 0.00 0.00 91 1015.6
20260506051228 37 306 1.7 4.3 0.00 0.00 0.00 90 1015.7
20260506050728 37 288 0.9 4.3 0.00 0.00 0.00 90 1015.6
20260506050229 37 189 1.7 7.0 0.00 0.00 0.00 90 1015.8
20260506044229 38 251 1.7 5.2 0.00 0.00 0.00 88 1015.6
20260506043229 38 251 2.6 5.2 0.00 0.00 0.00 89 1015.6
20260506042730 39 272 1.7 4.3 0.00 0.00 0.00 89 1015.6
20260506042228 39 289 0.9 3.5 0.00 0.00 0.00 89 1015.6
20260506041728 39 69 0.0 1.7 0.00 0.00 0.00 89 1015.6
20260506041227 40 69 0.0 2.6 0.00 0.00 0.00 89 1015.6
20260506040727 40 69 0.0 2.6 0.00 0.00 0.00 89 1015.5
20260506035728 40 30 0.9 4.3 0.00 0.00 0.00 89 1015.6
20260506035228 40 135 1.7 4.3 0.00 0.00 0.00 89 1015.6
20260506034730 40 31 0.0 3.5 0.00 0.00 0.00 89 1015.6
20260506034230 40 0 0.9 3.5 0.00 0.00 0.00 89 1015.7
20260506033729 40 25 0.9 4.3 0.00 0.00 0.00 88 1015.6
20260506032729 40 18 0.0 2.6 0.00 0.00 0.00 87 1015.7
20260506032229 40 18 0.0 2.6 0.00 0.00 0.00 87 1015.7
20260506031727 40 18 0.0 2.6 0.00 0.00 0.00 87 1015.8
20260506031227 40 18 0.0 2.6 0.00 0.00 0.00 87 1015.7
20260506030728 40 18 0.0 4.3 0.00 0.00 0.00 87 1015.7
20260506025729 40 14 1.7 5.2 0.00 0.00 0.00 87 1015.7
20260506025229 40 4 1.7 5.2 0.00 0.00 0.00 87 1015.7
20260506023727 40 354 3.5 7.0 0.00 0.00 0.00 86 1015.7
20260506023229 40 7 1.7 6.1 0.00 0.00 0.00 86 1015.7
20260506022236 40 0 1.7 5.2 0.00 0.00 0.00 85 1015.7
20260506021728 40 0 2.6 6.1 0.00 0.00 0.00 85 1015.8
20260506021229 40 0 3.5 7.0 0.00 0.00 0.00 85 1015.8
20260506020230 40 353 3.5 7.0 0.00 0.00 0.00 86 1015.7
20260506015730 40 337 3.5 7.0 0.00 0.00 0.00 86 1015.8
20260506015227 40 25 4.3 7.0 0.00 0.00 0.00 86 1015.8
20260506014729 41 11 1.7 9.6 0.00 0.00 0.00 86 1015.9
20260506013730 41 10 3.5 7.8 0.00 0.00 0.00 86 1015.8
20260506013228 41 10 3.5 7.0 0.00 0.00 0.00 85 1015.8
20260506012228 41 13 3.5 7.0 0.00 0.00 0.00 84 1015.8
20260506011727 41 0 2.6 7.0 0.00 0.00 0.00 83 1015.8
20260506011229 42 24 2.6 5.2 0.00 0.00 0.00 82 1015.9
20260506010728 42 35 2.6 5.2 0.00 0.00 0.00 82 1015.9